Погода в Кулебаках

Россия / Нижегородская область     55°25′46″N   42°30′44″E
темп.,
°C
ветер,
м/с
пор.,
м/с
влажн.,
%
обл.,
%
осадки,
мм/ч
давл.,
гПа
погр.,
м
22 января, сб
сб2200:00−6ююв51392100 0.2 1006637
03:00−7юв4129396 0.3 1007426
06:00−8юв41293100 0.0 1008442
09:00−8юв41393100 0.1 1010466
12:00−5юв4991100 0.0 1011569
15:00−4юв3892100 0.1 1012631
18:00−7юв3894100 0.2 1015305
21:00−9вюв249775 0.3 101796
23 января, вс
вс2300:00−13ююв239979 0.0 101943
03:00−14юв119980 0.1 102131
06:00−16юв119979 0.1 102436
09:00−16юв119969 0.1 102622
12:00−8юв119297 0.0 1028189
15:00−7св119581 0.0 103034
18:00−14всв119978 0.0 103210
21:00−16всв119968 0.0 10349
24 января, пн
пн2400:00−18св1110074 0.0 103610
03:00−18св1210067 0.0 103721
06:00−17всв1110071 0.0 103714
09:00−15св2510091 0.0 103982
12:00−8всв259398 0.0 1038227
15:00−6в259468 0.0 1037274
18:00−12всв229984 0.0 103721
21:00−14вюв239978 0.0 103753
25 января, вт
вт2500:00−15вюв239857 0.0 103651
03:00−17вюв119842 0.0 103413
06:00−18юв119832 0.0 103218
09:00−16ююв25965 0.0 103198
12:00−9ю36855 0.0 1028261
15:00−7ю26905 0.0 1026323
18:00−12ююв279799 0.0 1025136
21:00−13ю279893 0.0 1024129
26 января, ср
ср2600:00−10ююз399598 0.2 1022295
03:00−10ююз279583 0.4 1022251
06:00−12ююз259787 0.1 1021138
09:00−14ююз139981 0.2 102251
12:00−9юз249199 0.1 1021291
15:00−7зюз2492100 0.1 1021392
18:00−13юз1199100 0.0 10219
21:00−15юз1110094 0.1 10229